Regional Weather Roundup
Issued by NWS

Home | Current Version | Previous Version | Graphics & Text | Print | Product List | Glossary On
Versions: 1 2 3 4 5 6 7 8 9 10 11 12 13 14 15 16 17 18 19 20 21 22 23 24 25 26 27 28 29 30 31 32 33 34 35 36 37 38 39 40 41 42 43 44 45 46 47 48 49 50
000
ASUS43 KFSD 011210
RWRSD

WEATHER ROUNDUP FOR SOUTH DAKOTA
NATIONAL WEATHER SERVICE SIOUX FALLS SD
700 AM CDT FRI AUG 01 2014

NOTE: "FAIR" INDICATES FEW OR NO CLOUDS BELOW 12,000 FEET WITH NO
SIGNIFICANT WEATHER AND/OR OBSTRUCTIONS TO VISIBILITY.


SDZ001>005-009-010-012>017-011300-
NORTHWEST AND NORTH CENTRAL SOUTH DAKOTA

CITY           SKY/WX    TMP DP  RH WIND       PRES   REMARKS
BUFFALO          N/A     57  48  72 CALM      30.01R
FAITH            N/A     63  54  72 SE12      30.06S
MOBRIDGE       PTCLDY    61  55  81 E8        30.04S
$$

SDZ012>016-024>037-041>051-057-063-072>074-011300-
SOUTHWEST AND SOUTH CENTRAL SOUTH DAKOTA

CITY           SKY/WX    TMP DP  RH WIND       PRES   REMARKS
RAPID CTY ARPT CLEAR     62  47  57 W6        30.10S
PIERRE         CLEAR     60  58  92 SE5       30.05R
CUSTER         CLEAR     59  43  55 W7        30.26S
ELLSWORTH AFB  CLEAR     62  48  60 W9        30.09S
PHILIP         CLEAR     53  49  86 SE3       30.06S
PINE RIDGE     CLEAR     48  46  93 SE3       30.14S
WINNER         FAIR      63  60  90 SE7       30.09R
$$

SDZ004>011-016>023-039-040-011300-
NORTHEAST SOUTH DAKOTA

CITY           SKY/WX    TMP DP  RH WIND       PRES   REMARKS
ABERDEEN       CLEAR     52  50  93 CALM      30.08S
WATERTOWN      CLEAR     54  52  93 CALM      30.10R
SISSETON         N/A     59  58  96 CALM      30.06R
$$

SDZ017-020-022-023-036>040-048>070-011300-
SOUTHEAST SOUTH DAKOTA

CITY           SKY/WX    TMP DP  RH WIND       PRES   REMARKS
SIOUX FALLS    PTCLDY    54  54 100 CALM      30.10R
HURON          CLEAR     55  53  93 E3        30.07S FOG
CHAMBERLAIN    MOCLDY    59  57  94 CALM      30.08S
MITCHELL       CLEAR     57  56  96 E3        30.09R
YANKTON        CLOUDY    55  54  94 NE3       30.10R VSB<1/4
$$

ABBREVIATIONS USED IN REMARKS
   TC - TEMPERATURE IN CELSIUS
  WCI - WIND CHILL INDEX
   HX - HEAT INDEX
  VSB - VISIBILITY



USA.gov is the U.S. government's official web portal to all federal, state and local government web resources and services.